CZ-6A DEB

Satellite information

Favourite Embed

Satellite Type and Status

DEBRISIN ORBIT

Key statistics

Satellite CZ-6A DEB at a glance.

Uptime

1086

Days in orbit

Revolutions

≈ 14.1

Per day

Orbit

SSO

Sun Synchronous Orbit

Inclination

98.9

Latest

Satellite identification and parameters

Extended collection of information and parameters for CZ-6A DEB.

Object identification

Identified? True

Debris? True

Object name: CZ-6A DEB

International designator: 2022-151DL

Object number (NORAD): 54388

Object ID (CCSDS): 54388

Country: PEOPLES REPUBLIC OF CHINA (PRC)

Current information (Y/N): Y

RCS size: SMALL

Orbital parameters

Period: 102.477 minutes

Inclination: 98.8621 deg

SMA: 7253.982 km

Apoapsis: 939.741 km

Periapsis: 811.953 km

RAAN: 292.5802 deg

Eccentricy: 0.0088081

Argument of periapsis: 311.085 deg

Mean anomaly: 48.2733 deg

Mean motion: 14.05199645 rev/day

Mean motion (dot): 0.00002004 rev/day2

B* drag term: 0.0012244 1/REarth

Two-line elements (TLE)

Creation date: Oct. 31, 2025, 6:26 p.m.

Reference frame: TEME

Reference center: EARTH

Epoch: Oct. 31, 2025, 10:41 a.m. UTC

TLE line 0: 0 CZ-6A DEB

TLE line 1: 1 54388U 22151DL 25304.44574021 .00002004 00000-0 12244-2 0 9991

TLE line 2: 2 54388 98.8621 292.5802 0088081 311.0850 48.2733 14.05199645151485

Live tracking on map

Real-time ground track for satellite CZ-6A DEB.

In-orbit conjunctions

A list of the most updated potential collisions computed for object CZ-6A DEB.

Target Orbit TCA Probability of collision Miss distance Type
CZ-4 DEB SSO 2024-11-11 12:40:17 0.001771383 209.0 (m) DEBRIS
PORCUPINE 1 LEO 2024-09-24 09:43:14 0.0001314115 364.0 (m) PAYLOAD

Associated space launch

Chinese satellite reported for atmospheric/ocean/environmental/spatial parameter research purposes, details TBD.

CZ-6A DEB was lifted into orbit during the mission ‘Long March 6A | Yunhai 3’, on board a Long March 6A space rocket.

The launch took place on Nov. 11, 2022, 10:52 p.m. from Launch Complex 9A.

For more information about the launch, click the button.

Launch to space Long March 6A | Yunhai 3
Long March 6A | Yunhai 3

Agency: N/A

Status: Launch Successful

Launch date: Nov. 11, 2022, 10:52 p.m. UTC

Rocket: Long March 6A

Launch pad: Launch Complex 9A

Location: Taiyuan Satellite Launch Center, People's Republic of China

...

Latest news about this satellite

There are no fresh news available about this satellite. Check back as we update our databases every day.


Newsletter sign-up

Weekly statistics, charts and insights to help you stay on top of the space industry.